Flight Track Log - Related Links

Times and Time Zones

All times are in EDT time to prevent confusion due to time zone crossing. See the SWA1040 flight status page for this flight to view local times or setup timezone preferences in your user account.

Time Position Orientation Groundspeed Altitude Reporting Facility
EDT Latitude Longitude Course Direction KTS MPH feet Rate Location/Type
Sat 14:38:22 39.1500 -76.6500 142° Southeast 180 207 2,000  Level Potomac TRACON
Sat 14:39:17 39.1000 -76.6000 142° Southeast 239 275 4,500 3,223 Climbing Potomac TRACON
Sat 14:40:23 39.0167 -76.5500 155° Southeast 273 314 8,500 3,439 Climbing Potomac TRACON
Sat 14:42:01 38.8806 -76.5222 171° South 312 359 13,900 2,075 Climbing Washington Center
Sat 14:43:02 38.7889 -76.5292 183° South 329 379 14,000 99 Climbing Washington Center
Sat 14:44:02 38.7236 -76.5869 215° Southwest 329 379 14,100 1,884 Climbing Washington Center
Sat 14:45:03 38.6208 -76.6678 212° Southwest 358 412 17,800 3,322 Climbing Washington Center
Sat 14:46:03 38.5308 -76.7011 196° South 369 425 20,800 2,136 Climbing Washington Center
Sat 14:47:01 38.4325 -76.7342 195° South 374 430 22,000 605 Climbing Washington Center
Sat 14:48:02 38.3197 -76.7747 196° South 395 455 22,000  Level Washington Center
Sat 14:49:03 38.2086 -76.8125 195° South 411 473 22,000  Level Washington Center
Sat 14:50:01 38.0917 -76.8503 194° South 425 489 22,000  Level Washington Center
Sat 14:51:02 37.9681 -76.8956 196° South 433 498 22,000  Level Washington Center
Sat 14:52:02 37.8528 -76.9356 195° South 433 498 22,000  Level Washington Center
Sat 14:53:03 37.7397 -76.9756 196° South 433 498 22,000  Level Washington Center
Sat 14:54:03 37.6267 -77.0131 195° South 433 498 22,000  Level Washington Center
Sat 14:55:01 37.5136 -77.0528 196° South 427 491 22,000  Level Washington Center
Sat 14:56:02 37.4006 -77.0950 197° South 427 491 22,000  Level Washington Center
Sat 14:57:02 37.2914 -77.1425 199° South 422 486 22,000  Level Washington Center
Sat 14:58:03 37.1989 -77.2058 209° Southwest 422 486 22,000 -504 Level Washington Center
Sat 14:59:01 37.0997 -77.2767 210° Southwest 422 486 21,000 -1,000 Descending Washington Center
Sat 15:00:03 36.9986 -77.3500 210° Southwest 422 486 20,000 -492 Descending Washington Center
Sat 15:01:03 36.9036 -77.4206 211° Southwest 422 486 20,000  Level Washington Center
Sat 15:02:01 36.8067 -77.4933 211° Southwest 411 473 20,000  Level Washington Center
Sat 15:03:02 36.7114 -77.5636 211° Southwest 411 473 20,000  Level Washington Center
Sat 15:04:02 36.6122 -77.6386 211° Southwest 411 473 20,000  Level Washington Center
Sat 15:05:02 36.5169 -77.7139 212° Southwest 411 473 20,000  Level Washington Center
Sat 15:06:03 36.4400 -77.8150 227° Southwest 405 466 20,000  Level Washington Center
Sat 15:07:01 36.3567 -77.9236 226° Southwest 400 460 20,000 -958 Level Washington Center
Sat 15:08:02 36.2794 -78.0217 226° Southwest 396 456 18,100 -2,132 Descending Washington Center
Sat 15:09:02 36.2086 -78.1172 227° Southwest 379 436 15,700 -2,430 Descending Washington Center
Sat 15:10:03 36.1439 -78.2233 233° Southwest 389 448 13,200 -2,017 Descending Washington Center
Sat 15:11:01 36.0956 -78.3269 240° Southwest 365 420 11,700 -1,361 Descending Washington Center
Sat 15:12:02 36.0453 -78.4281 238° Southwest 352 405 10,500 -934 Descending Washington Center
Sat 15:13:03 36.0078 -78.5114 241° Southwest 322 371 9,800 -992 Descending Washington Center
Sat 15:14:03 35.9519 -78.5761 223° Southwest 294 338 8,500 -908 Descending Washington Center
Sat 15:15:02 35.9006 -78.6331 222° Southwest 275 316 8,000 -254 Descending Washington Center
Sat 15:16:01 35.8450 -78.6797 214° Southwest 253 291 8,000 -454 Level Washington Center
Sat 15:17:01 35.7975 -78.7367 224° Southwest 247 284 7,100 -966 Descending Washington Center
Sat 15:17:59 35.7481 -78.7989 226° Southwest 244 281 6,100 -1,000 Descending Washington Center
Sat 15:19:01 35.7006 -78.8531 223° Southwest 232 267 5,100 -672 Descending Washington Center
Sat 15:19:55 35.6739 -78.9133 241° Southwest 226 260 4,800 -783 Descending Washington Center
Sat 15:20:56 35.7211 -78.9461 331° Northwest 208 239 3,600 -885 Descending Washington Center
Sat 15:21:57 35.7614 -78.9222 26° Northeast 163 188 3,000 -585 Descending Washington Center
Sat 15:22:59 35.7936 -78.8878 41° Northeast 151 174 2,400 -639 Descending Washington Center
Sat 15:23:59 35.8175 -78.8528 50° Northeast 135 155 1,700 -722 Descending Washington Center
Sat 15:25:12 35.8497 -78.8158 43° Northeast 122 140 800 -740 Descending Washington Center

Login

Don't have an account? Register now (free) for customized features, flight alerts, and more!